Theta_e
311 314 314 314 314 317 320 317 315 315 312 311 312 313 313 312 311 310 312 314 310 312 318 318 316 316 317 315 316 330 345 344 341 342 342 342 341 340 339 338 338 339 341 341 341 342 340 340 340 340 340 340 340 339 339 339 338 339 338 336 335 334 334 334 333 332 331 330 330 330 330 330 329 328 329 330 330 329 328 327 326 325 325 326 325 324
311 315 315 315 318 323 327 322 316 313 311 311 312 312 312 311 311 309 310 313 310 313 321 319 315 316 318 316 313 324 343 345 341 342 342 342 341 339 339 338 337 338 339 340 341 341 341 340 340 340 340 340 340 339 338 338 338 339 338 337 335 334 334 334 333 331 331 330 329 329 329 329 329 329 329 329 328 328 327 327 325 323 323 324 324 323
313 315 314 314 318 321 323 322 317 313 313 313 312 312 313 312 312 312 313 314 312 314 320 318 316 317 318 317 313 321 339 344 340 342 341 342 341 339 339 338 337 337 338 340 339 340 340 340 340 340 340 340 339 339 338 338 339 339 338 336 335 334 333 333 332 330 330 330 329 329 328 328 329 329 329 327 327 326 325 325 323 320 319 321 322 323
315 316 313 311 314 315 315 318 317 313 313 315 314 312 313 313 312 315 316 316 315 314 317 316 315 318 318 319 315 316 330 341 340 341 340 340 340 339 339 338 337 337 338 339 338 339 339 339 340 339 339 339 339 339 338 338 338 338 338 336 334 334 333 332 331 330 330 330 329 328 328 329 330 329 328 326 324 321 321 322 321 317 317 319 322 323
316 314 311 311 313 314 312 315 315 312 314 319 318 313 312 313 312 314 315 316 318 320 319 314 317 325 324 323 319 313 319 332 337 338 339 339 339 339 339 338 337 337 338 338 338 339 339 339 339 338 339 339 338 338 337 337 337 337 337 335 334 334 333 332 330 329 329 330 329 328 329 330 329 329 327 323 320 316 315 316 317 316 318 320 321 323
315 311 310 313 314 312 312 314 316 314 315 318 319 315 312 313 314 313 313 314 319 324 321 314 318 328 327 325 322 317 319 327 333 336 337 338 339 338 338 338 338 338 337 338 338 339 338 338 338 338 338 338 338 338 337 337 336 336 335 335 334 334 333 332 330 329 329 329 328 326 328 329 329 329 326 322 319 317 314 314 316 316 318 319 320 321
313 310 310 314 315 313 313 314 315 315 313 314 318 319 313 312 314 313 313 315 319 323 318 314 318 322 322 321 319 321 326 329 333 336 336 337 338 338 338 338 338 338 338 337 338 339 338 337 337 338 338 337 338 337 337 337 336 335 335 334 334 334 333 332 331 330 329 329 327 327 328 328 328 327 323 322 323 322 319 317 317 316 317 318 319 319
312 311 311 313 314 313 313 313 313 313 313 315 320 321 315 312 313 313 313 315 320 322 319 320 321 317 320 321 318 324 332 332 334 336 336 338 338 338 338 338 338 338 338 337 337 338 337 336 337 337 338 337 337 337 337 337 336 334 334 334 334 334 332 332 331 330 329 328 328 328 329 328 328 325 323 324 326 325 322 319 318 316 316 317 317 316
312 313 313 312 312 312 313 314 314 312 311 316 320 319 315 314 314 314 314 317 318 318 318 322 319 314 325 328 321 328 335 333 335 335 335 338 338 338 338 338 338 338 337 337 336 336 335 336 337 336 337 336 336 337 337 337 335 334 334 334 334 333 333 332 331 330 329 329 329 329 329 328 328 325 325 326 327 325 321 319 318 318 316 315 314 312
311 313 311 312 313 312 313 314 314 312 312 315 317 315 314 316 317 315 317 318 316 315 316 321 319 314 327 332 325 332 339 333 333 334 335 338 338 338 339 338 338 337 337 337 335 335 335 336 337 336 336 336 336 336 337 337 335 334 334 334 334 333 333 332 331 329 329 330 330 330 329 327 327 327 327 327 325 322 319 318 318 318 317 314 311 310
311 310 309 311 312 312 313 312 311 312 311 312 314 314 314 318 320 321 324 320 314 318 317 318 321 316 320 329 329 334 337 331 333 336 336 338 338 338 338 337 338 337 336 336 336 336 336 337 336 336 335 335 336 336 336 336 335 334 333 333 334 333 333 332 330 330 330 330 330 329 328 327 327 328 327 324 320 317 316 316 316 316 315 314 313 313
312 311 311 312 311 310 311 310 309 310 310 311 316 317 316 320 320 320 325 321 314 321 321 317 318 316 318 325 327 329 329 325 330 335 336 338 338 338 338 337 337 337 336 336 336 336 336 337 336 336 336 336 336 336 336 336 336 334 333 333 333 332 332 332 330 330 330 329 329 328 328 327 327 328 326 321 316 315 316 315 314 314 315 314 313 314
315 314 313 312 312 311 311 313 311 309 309 312 316 317 316 318 319 318 321 320 317 321 322 319 317 316 322 327 326 327 327 325 325 330 335 337 337 337 337 336 336 337 337 336 335 334 334 336 337 337 337 336 335 335 335 336 334 333 332 332 332 331 332 332 331 331 330 329 329 328 328 328 328 327 326 321 316 316 316 315 314 314 314 313 312 313
318 317 312 311 312 311 311 314 314 313 312 311 314 317 317 318 318 320 321 319 318 318 317 316 316 317 324 326 325 327 328 327 324 324 332 336 336 337 336 336 336 336 337 336 334 333 332 335 336 336 336 335 335 334 333 333 332 330 330 330 331 331 332 332 331 330 330 329 329 329 329 329 328 327 327 322 317 316 316 315 316 315 313 313 312 313
319 319 316 313 312 312 311 312 313 315 313 310 313 314 316 321 321 321 324 320 317 319 319 317 315 319 328 327 325 328 329 330 328 326 332 336 336 337 336 335 336 335 336 335 334 332 332 334 335 335 334 333 334 333 330 330 330 330 330 330 331 332 332 332 331 330 329 329 330 329 328 329 328 327 327 323 317 315 314 314 317 317 316 315 314 314
313 317 319 314 310 310 312 313 312 314 314 311 312 313 314 320 323 319 321 321 321 321 320 320 320 323 331 329 326 330 332 332 332 331 334 336 335 336 335 333 333 333 334 335 332 331 332 333 333 334 334 333 333 332 329 330 330 329 330 330 331 332 332 331 331 330 329 330 330 328 327 328 327 327 327 322 315 314 313 315 318 319 320 320 317 314
312 317 319 313 311 313 312 313 312 312 316 314 312 315 314 314 320 321 317 316 319 320 318 322 331 332 331 329 328 332 335 334 335 335 334 333 334 334 333 332 331 331 331 331 331 331 332 332 332 333 333 333 332 331 329 329 330 330 330 330 331 331 331 330 330 330 329 329 329 327 327 328 327 327 325 319 314 314 314 316 318 319 320 319 317 313
314 317 320 315 313 314 310 310 312 310 314 317 315 316 314 311 317 324 324 320 320 320 321 324 333 335 332 332 330 331 333 334 334 335 333 332 333 334 333 331 330 329 330 329 328 330 331 331 332 332 332 332 332 331 330 329 329 331 331 330 331 330 330 329 329 329 329 328 327 327 327 328 327 327 324 318 316 316 315 316 318 317 316 314 312 311
313 316 324 318 313 316 313 311 314 312 310 315 318 315 314 317 319 319 322 324 319 318 324 325 324 328 332 333 330 328 329 329 329 329 328 329 330 330 329 328 327 328 329 328 328 329 329 330 331 331 331 331 331 331 331 330 329 330 331 330 330 329 328 328 327 327 327 327 327 328 328 328 327 325 322 320 318 317 316 315 317 317 315 310 308 307
312 314 323 320 312 313 319 317 319 320 313 311 313 313 316 325 324 318 319 323 321 321 325 324 324 330 333 327 325 326 326 327 327 325 325 325 325 325 325 325 326 326 327 328 328 328 328 329 330 330 330 330 330 330 330 331 330 330 331 330 329 328 326 326 325 323 325 327 328 328 328 327 325 324 323 321 317 316 315 316 317 318 316 312 307 306
315 312 318 324 316 312 319 321 318 321 318 313 314 315 318 320 318 318 318 317 321 325 326 325 329 334 329 322 323 325 324 326 327 326 325 324 324 324 323 324 325 326 326 327 327 327 327 328 329 330 330 330 331 331 330 331 331 330 330 330 330 328 327 326 324 322 324 327 328 329 328 326 324 324 325 321 315 314 315 316 318 319 319 316 310 306
319 315 318 325 320 315 320 319 315 317 318 321 324 322 322 322 320 320 319 316 320 324 325 328 336 335 325 320 324 324 324 326 326 326 326 324 324 324 322 324 325 326 327 327 328 327 327 327 327 328 330 331 332 332 331 331 331 330 330 329 329 328 327 326 324 322 324 327 329 329 327 326 325 325 325 319 312 313 316 318 319 320 321 318 312 306
323 323 322 322 319 317 317 316 315 316 317 322 327 325 324 325 325 327 325 321 320 318 319 326 334 330 321 320 325 324 324 326 325 325 325 324 324 324 324 325 326 327 327 328 328 328 327 327 327 327 329 330 331 331 331 330 330 329 329 328 329 328 327 326 324 323 325 328 329 328 326 326 325 326 324 316 311 314 316 318 320 321 321 319 313 307
323 324 321 322 326 325 322 320 317 316 318 322 323 323 323 323 326 330 329 328 327 324 322 326 329 327 321 322 325 324 324 325 324 325 324 323 324 324 324 326 326 326 327 327 327 327 327 328 328 328 329 329 330 330 330 329 328 329 329 328 328 328 328 327 325 325 327 328 329 327 326 326 326 325 322 314 311 314 315 315 319 321 320 319 313 307
321 320 318 321 326 325 325 326 323 321 324 324 321 322 322 321 324 323 320 324 326 322 321 325 331 329 322 322 325 324 323 324 323 323 323 323 324 324 324 324 324 325 325 325 326 326 327 327 327 328 328 328 329 329 328 328 328 329 329 328 328 326 326 327 326 327 328 328 328 326 325 326 325 323 320 313 311 314 313 313 318 321 320 317 313 307
322 320 319 323 326 325 325 326 324 323 323 321 321 324 322 319 321 320 320 323 320 316 321 330 333 328 323 323 325 324 323 324 323 322 322 322 322 322 321 321 322 323 323 324 324 324 325 325 325 325 326 327 328 327 327 327 327 328 328 328 327 325 325 326 326 327 327 327 327 325 325 325 325 323 321 315 312 313 312 311 317 321 320 317 313 308
324 320 318 322 324 323 323 321 317 318 321 321 322 325 323 320 321 324 326 325 321 322 326 329 326 324 325 325 325 324 324 323 321 319 318 317 317 317 316 317 319 319 320 320 321 322 324 324 323 323 323 325 326 326 325 326 326 327 328 327 327 325 325 325 325 325 325 325 324 323 323 324 323 322 322 318 314 314 313 312 317 322 321 318 315 310
328 322 317 318 317 316 316 315 314 316 319 318 318 320 319 318 324 333 332 322 319 323 326 323 321 324 326 323 322 322 320 317 316 314 314 313 313 312 312 313 315 316 318 319 320 322 323 323 322 321 322 324 324 323 324 325 325 326 327 327 327 326 325 325 324 324 323 323 323 322 322 323 321 321 321 319 316 314 314 316 320 321 321 320 318 313
329 322 317 317 316 315 315 314 314 316 315 312 312 314 315 315 321 331 329 318 316 321 325 323 322 322 320 317 316 315 313 313 312 311 311 310 310 309 309 309 311 314 317 318 319 320 321 321 322 321 322 323 323 323 323 324 325 325 326 327 327 326 325 325 324 323 323 323 323 322 323 322 322 321 321 319 316 315 316 319 321 321 319 319 318 315
323 321 317 318 318 316 316 315 315 316 315 313 311 310 313 314 315 319 319 315 317 322 323 321 319 316 313 312 311 310 310 310 309 309 308 307 307 307 307 307 307 310 313 315 316 318 319 320 320 320 321 322 322 323 323 324 325 325 325 326 326 326 325 325 325 324 324 323 323 322 321 321 322 322 321 318 317 316 314 315 317 317 316 314 314 315
319 318 316 320 321 318 316 317 318 317 317 317 313 309 311 315 316 317 317 317 319 321 319 318 318 314 310 309 308 308 308 307 307 306 306 305 305 305 305 305 305 307 309 311 313 315 316 318 317 317 320 322 322 322 323 323 323 323 324 324 325 325 325 325 325 325 324 324 323 322 321 320 321 321 319 317 316 314 312 312 313 314 315 314 316 317
322 317 315 320 324 319 316 317 319 319 319 319 316 311 310 314 316 316 314 313 316 319 319 320 321 315 309 307 307 306 305 305 305 305 305 304 304 304 304 304 304 305 307 308 311 312 313 315 315 314 317 321 321 322 322 322 322 323 323 323 323 323 324 324 324 324 324 324 323 322 322 321 321 321 319 316 315 314 314 313 313 314 317 318 318 318
322 319 317 321 324 319 315 317 320 321 321 320 315 310 309 310 312 313 312 309 310 315 319 320 317 312 307 306 306 304 304 304 304 304 304 304 303 303 303 303 304 305 306 306 308 309 310 311 311 310 313 318 320 320 321 322 322 322 322 323 323 323 323 323 323 322 322 322 322 321 321 321 320 320 319 316 316 316 315 314 315 317 319 319 317 317
318 320 320 320 321 318 315 316 320 321 321 317 311 308 308 309 310 312 311 308 307 310 311 310 308 306 304 304 304 303 303 303 303 303 303 303 303 302 302 303 303 304 305 305 306 307 307 307 307 308 311 314 317 318 319 321 321 320 321 322 322 322 323 323 322 322 322 321 322 321 321 320 319 318 317 316 317 318 317 317 318 319 319 318 316 316
319 321 320 318 318 317 315 317 320 320 317 313 310 309 308 308 309 309 309 307 306 307 306 305 304 303 302 302 302 302 302 302 303 303 303 303 303 302 302 303 303 304 304 304 305 305 305 305 306 308 310 311 312 314 317 318 318 318 320 320 321 322 321 321 321 321 321 321 320 320 320 320 320 319 318 318 319 319 319 319 320 319 319 317 317 318
320 321 319 316 315 315 315 317 318 316 312 310 310 309 308 308 308 310 311 309 306 305 305 303 303 302 301 302 302 302 302 302 302 302 302 303 302 302 303 303 303 304 304 304 304 304 304 304 304 306 306 307 308 311 312 313 314 315 316 317 318 318 318 318 319 318 318 318 317 317 318 319 320 320 319 320 320 319 319 319 319 319 319 317 317 318
317 319 320 317 313 314 316 315 314 314 313 311 310 308 307 307 307 309 312 310 306 305 304 302 302 302 302 302 302 302 303 303 302 301 302 302 302 302 302 302 303 304 304 304 304 304 304 304 304 304 304 305 305 306 307 308 309 310 311 312 312 313 314 315 315 313 313 313 313 313 315 316 317 317 317 318 318 319 319 319 319 319 319 318 318 318
312 316 321 319 312 312 316 315 314 316 315 311 309 306 305 305 305 306 310 311 307 305 304 302 302 303 303 303 303 304 305 305 303 301 301 302 303 302 302 302 303 303 304 304 304 304 304 305 305 305 305 305 305 305 306 306 306 306 307 307 308 309 310 311 309 308 308 309 309 309 310 311 312 314 314 315 316 316 317 317 317 317 317 317 317 318
310 313 320 319 313 312 317 317 315 315 313 309 307 305 304 304 303 305 311 314 308 304 304 303 303 304 304 304 304 305 306 306 304 302 301 301 303 304 304 304 303 303 303 303 303 303 302 303 304 305 305 305 305 305 306 307 307 307 306 305 305 307 307 307 306 306 306 307 307 307 308 308 309 310 310 311 312 312 312 313 314 314 314 315 316 316
312 313 316 317 313 311 313 314 312 311 310 306 304 304 303 303 303 308 316 315 307 304 304 304 304 304 304 305 305 306 307 306 304 301 301 302 303 304 304 304 303 303 302 301 301 301 301 301 303 304 304 303 302 302 303 305 307 308 306 305 306 307 306 305 304 304 305 305 306 307 307 308 308 309 308 308 309 308 309 309 309 309 309 310 312 313
312 312 311 312 311 310 311 312 310 309 307 304 302 303 303 304 307 314 316 311 305 304 305 303 304 305 305 305 306 305 305 305 303 301 301 303 304 304 304 304 303 303 303 301 300 300 300 301 301 301 301 300 300 300 300 302 304 306 305 304 305 306 304 302 302 302 302 303 303 304 305 306 306 307 308 308 308 309 309 309 309 308 308 308 308 308
310 310 310 309 309 309 309 310 310 309 305 302 302 303 304 309 313 312 308 305 304 305 304 304 305 306 305 305 305 304 304 303 303 302 302 303 303 303 303 303 302 301 301 300 300 300 300 300 299 299 299 299 299 299 298 299 301 301 301 302 303 302 300 299 299 299 300 300 301 301 302 302 302 303 303 303 304 305 306 307 308 308 309 309 309 309
306 308 309 307 306 307 309 310 311 310 305 301 302 305 306 309 310 306 303 303 304 304 304 305 305 306 305 304 304 303 303 302 301 302 302 302 302 302 301 301 301 300 299 299 299 299 299 299 299 299 298 298 298 297 297 298 298 299 299 300 300 299 298 298 298 297 298 298 299 299 299 299 300 300 300 300 300 300 300 301 301 302 304 304 305 306
305 307 308 306 304 307 311 309 307 306 303 300 302 304 304 303 303 303 303 303 304 304 305 305 305 305 305 304 302 301 301 300 300 301 301 301 301 301 300 300 300 300 299 299 299 299 299 298 298 298 297 297 297 297 297 297 297 297 298 298 298 297 297 297 297 297 297 297 298 298 298 298 298 298 298 298 298 298 298 298 299 299 299 299 300 300
305 304 305 305 303 303 306 305 303 302 301 301 301 301 301 302 302 303 304 303 303 304 305 305 304 304 304 303 301 300 300 300 300 301 301 301 301 300 300 300 299 299 299 299 299 299 298 298 298 298 297 297 297 297 296 296 297 297 297 297 297 297 297 297 297 297 297 297 297 297 297 297 298 298 298 298 298 298 298 298 298 298 298 298 298 298
303 302 303 305 303 302 303 302 301 301 301 301 301 301 302 302 302 303 303 303 303 304 304 304 303 302 302 301 300 299 299 299 300 300 301 301 301 300 300 300 299 299 299 299 299 298 298 298 298 297 297 297 297 297 296 296 297 297 296 296 296 296 297 296 297 297 297 297 297 297 297 297 297 297 297 297 297 297 297 297 297 297 297 297 297 297
303 302 303 305 304 304 305 302 300 300 301 300 301 301 301 302 302 302 303 302 302 303 303 303 302 301 301 301 300 300 299 299 299 300 300 300 300 300 299 299 299 299 299 299 298 298 298 298 298 297 297 297 297 297 296 296 296 296 296 296 296 296 296 296 296 296 296 296 296 296 297 297 297 297 297 297 297 297 297 297 297 297 297 297 297 297
302 303 304 304 303 303 304 301 299 300 301 300 301 301 301 301 301 301 301 301 301 302 302 301 301 301 301 300 300 300 299 299 299 299 299 299 299 299 299 299 299 299 298 298 298 298 298 298 297 297 297 297 297 297 297 296 296 296 296 296 296 296 296 296 296 296 296 296 296 296 296 296 296 296 296 296 296 297 297 297 297 297 297 297 297 297
302 304 303 302 303 302 302 300 300 302 302 300 301 301 301 301 301 301 301 301 301 302 301 301 301 301 301 300 300 299 299 299 299 299 299 299 299 299 299 299 299 299 298 298 297 298 297 297 297 297 297 297 297 297 297 296 296 296 295 295 295 295 295 295 296 296 296 296 296 295 295 295 295 295 295 295 295 295 296 296 296 296 296 296 296 296
303 304 302 303 305 305 304 302 301 303 303 301 301 302 302 302 302 302 302 302 302 302 302 302 302 301 301 300 300 299 300 300 300 299 299 299 299 299 299 299 299 298 298 298 297 297 297 297 297 297 297 297 297 297 297 297 296 296 296 296 296 295 295 295 295 295 295 295 295 295 295 294 294 294 294 295 295 295 295 295 295 295 295 295 295 295
303 303 302 304 305 304 304 302 301 301 302 302 301 303 303 303 303 303 302 302 302 302 302 303 302 301 301 300 300 300 300 300 300 300 299 299 299 299 299 299 299 298 298 298 297 297 297 297 297 297 297 297 297 297 297 297 297 297 296 296 296 296 296 295 295 295 295 295 295 295 295 294 294 294 294 295 296 296 296 296 296 295 295 295 295 295
Wind_Speed
7 4 2 4 4 5 7 7 7 6 4 3 2 3 4 5 5 2 4 6 1 1 6 6 5 7 9 6 8 17 21 18 15 14 15 19 22 24 26 29 29 30 34 33 32 32 30 29 29 28 28 28 28 27 26 26 25 26 24 21 20 20 20 21 21 21 20 19 18 18 16 15 14 12 11 9 8 7 6 6 5 5 6 5 6 5
5 5 5 6 8 7 6 6 6 5 2 1 2 4 4 5 5 3 4 7 3 3 5 4 3 7 10 8 7 14 15 13 17 16 17 21 23 25 28 28 28 27 30 32 32 33 32 31 30 29 29 28 28 28 26 26 25 26 25 21 20 20 20 21 21 20 19 19 18 18 16 14 13 11 10 10 9 8 7 7 7 6 6 6 6 5
1 4 5 7 8 5 4 5 6 4 2 2 2 3 5 4 4 5 4 3 1 3 4 3 3 8 11 8 6 12 15 19 28 28 26 28 26 27 29 28 26 26 30 33 32 33 34 32 31 31 30 29 29 27 26 26 25 26 24 21 21 20 20 22 21 19 18 18 18 16 15 14 13 12 12 10 9 9 9 9 9 8 7 7 7 6
2 5 6 7 7 6 3 4 7 4 1 2 3 2 5 2 1 4 4 4 1 2 5 5 4 7 8 6 4 13 20 23 31 33 30 30 31 32 33 30 29 31 34 34 32 34 35 33 33 32 31 30 29 27 26 27 26 26 24 22 22 21 21 22 22 20 18 18 18 16 15 13 13 14 14 12 10 10 10 10 10 9 8 8 7 8
5 6 3 5 6 6 4 3 6 4 2 3 5 6 4 2 4 6 4 5 5 3 3 3 4 5 5 5 6 8 14 16 18 21 20 23 27 28 26 26 30 33 36 35 34 36 37 35 34 33 31 30 30 29 27 27 28 25 23 22 22 22 22 23 22 21 19 19 19 18 17 16 16 16 15 13 12 10 10 10 11 10 9 8 7 7
7 6 5 6 3 5 5 3 4 6 3 4 5 9 8 7 8 8 3 4 5 5 2 1 3 5 5 4 6 4 5 8 8 12 15 20 21 21 23 26 30 33 34 37 37 38 38 35 34 31 30 31 31 30 28 27 27 23 22 23 23 23 23 23 22 21 20 20 19 19 18 19 19 18 15 13 11 9 10 10 11 10 9 8 7 7
3 4 7 6 4 5 4 4 5 7 4 4 5 9 11 9 8 8 2 2 1 3 3 3 3 4 6 4 6 6 4 6 4 7 12 18 20 22 26 30 32 33 34 37 37 37 36 35 34 32 31 31 32 30 28 27 25 22 22 24 24 24 23 23 22 21 21 20 19 18 18 19 18 16 13 12 9 8 9 9 10 10 10 9 8 7
2 4 5 5 5 5 4 4 5 8 6 3 6 8 9 8 8 7 3 3 3 3 4 3 4 3 5 4 6 4 1 3 4 7 9 16 22 23 28 33 35 36 37 38 38 37 37 36 35 32 30 31 31 30 29 27 25 23 23 24 24 24 24 23 21 21 21 20 19 18 18 17 15 12 11 11 11 9 8 8 8 8 9 10 9 7
3 6 6 6 5 4 5 5 7 9 5 6 6 7 7 7 7 5 5 4 3 2 5 5 2 2 5 5 5 2 3 3 7 9 9 15 22 24 29 35 37 36 37 38 38 38 39 37 34 29 28 30 30 30 29 27 26 24 23 23 24 25 24 22 21 21 21 19 19 19 19 17 14 12 11 11 11 9 8 8 8 7 7 7 7 7
2 5 8 8 5 5 7 6 9 11 6 4 5 5 3 3 3 3 4 3 1 1 5 7 2 2 4 5 4 3 1 4 6 7 8 13 20 24 29 35 37 35 34 35 36 38 38 35 30 27 27 28 29 29 29 27 25 25 23 24 25 26 24 21 21 21 21 20 20 20 19 16 15 14 13 12 11 9 9 9 8 7 6 5 6 8
2 1 4 5 6 7 6 5 10 14 8 2 5 4 5 5 3 3 2 3 3 2 7 6 4 3 3 5 3 1 2 4 4 5 7 11 16 21 26 31 35 35 32 32 33 35 33 31 29 27 28 28 27 28 28 27 25 25 24 24 26 26 24 22 22 21 21 21 21 20 17 15 15 15 13 12 10 10 9 8 7 6 6 6 7 8
3 1 1 5 10 7 4 3 6 8 5 2 3 4 3 2 3 4 4 3 2 5 7 4 3 5 3 5 4 4 6 5 6 7 10 13 17 22 26 30 33 33 30 27 27 29 29 29 29 29 28 27 25 25 26 26 25 25 25 25 26 26 25 23 23 22 21 21 21 19 17 15 14 13 11 8 8 8 8 7 6 6 6 7 7 8
3 4 3 4 9 8 5 2 3 2 2 4 3 4 3 1 2 2 3 0 2 7 5 1 3 4 4 6 5 7 8 7 7 9 10 12 16 21 25 27 27 27 26 21 17 16 18 22 26 28 28 26 24 23 24 24 23 24 25 25 26 27 26 25 24 23 22 22 21 19 17 15 13 11 8 6 6 7 7 6 5 5 5 6 7 7
3 5 3 2 4 7 9 4 2 1 3 6 5 5 4 2 2 1 3 1 3 6 3 1 2 2 3 4 4 7 10 10 12 13 12 11 13 16 19 23 24 25 24 18 13 13 18 22 24 27 28 27 25 22 21 20 20 20 22 23 26 27 26 26 24 23 23 23 21 19 17 15 13 11 8 5 6 7 7 7 6 5 5 6 6 6
1 4 3 4 2 3 7 7 5 4 4 4 4 5 5 4 4 3 3 3 3 4 3 2 1 3 2 3 4 6 8 11 9 11 11 8 11 16 18 22 25 27 27 22 19 22 26 25 24 26 29 28 27 23 18 17 17 17 17 19 25 28 27 27 25 23 24 23 21 19 17 15 12 10 8 6 6 7 7 7 7 6 6 6 6 6
3 4 7 4 2 4 4 5 5 6 3 2 2 4 2 5 5 2 3 4 2 1 2 2 1 3 3 4 4 3 5 7 6 4 8 9 13 20 22 23 24 24 25 27 28 30 28 24 22 24 27 28 27 21 13 10 12 14 14 15 21 26 28 28 26 23 23 23 20 18 17 15 13 11 8 7 8 8 7 7 7 6 6 6 5 5
2 4 7 4 3 4 5 4 5 5 4 1 2 4 3 4 7 4 2 1 3 2 2 1 2 4 2 2 4 4 5 5 6 6 6 8 13 19 20 21 21 22 23 24 26 29 28 25 23 22 24 24 22 18 12 10 9 11 14 14 17 23 26 26 24 22 23 21 19 18 16 14 13 11 9 8 9 9 8 7 7 5 5 5 4 4
3 3 6 2 4 6 2 2 1 2 5 4 3 5 2 3 4 4 2 3 4 2 3 2 2 4 1 0 3 5 7 5 5 5 5 5 5 10 14 19 21 22 25 21 16 20 22 22 22 21 20 17 14 14 15 16 14 11 14 14 15 21 24 25 23 22 22 20 18 18 16 14 13 11 9 9 9 8 8 8 8 6 4 4 4 4
3 2 7 4 5 6 4 2 2 4 2 4 4 4 3 2 1 1 2 1 1 2 3 3 2 3 2 2 2 5 6 6 6 7 8 8 7 7 6 8 18 21 24 21 14 13 15 16 19 21 18 14 12 13 14 18 18 15 15 15 15 18 22 23 23 22 22 20 18 17 16 15 14 12 11 9 8 9 9 9 8 7 5 4 3 4
2 1 5 5 3 3 5 3 1 3 3 2 3 2 2 3 4 2 2 2 3 3 1 2 3 3 4 3 2 4 5 4 5 6 8 9 14 21 22 12 8 15 16 14 11 9 9 10 12 16 16 14 13 14 16 19 20 18 18 16 13 15 20 22 23 23 23 21 19 18 17 16 15 13 11 9 8 9 10 9 9 8 7 5 4 4
2 2 3 5 4 3 2 1 2 4 1 2 2 1 1 2 2 2 1 1 3 4 2 1 1 4 4 1 3 4 5 2 3 4 5 7 15 23 23 18 12 12 12 10 9 7 6 8 7 9 11 11 13 14 16 19 20 19 19 17 12 12 17 22 23 23 23 22 21 19 18 18 17 14 11 9 9 10 11 10 9 8 6 5 3 4
2 2 3 3 4 2 3 4 2 3 4 4 4 4 3 3 4 3 0 1 2 3 3 4 2 5 4 0 2 3 2 2 3 5 6 8 14 18 16 14 13 14 13 10 7 4 2 4 6 8 8 10 12 14 17 19 20 20 20 18 15 13 16 21 24 25 25 24 23 21 19 18 17 15 13 11 12 12 12 11 8 7 5 3 3 3
3 4 2 2 2 3 7 7 2 1 2 2 2 3 3 3 4 5 3 3 2 2 2 3 1 5 3 1 1 2 3 4 6 9 10 11 15 17 17 15 14 15 14 10 7 4 4 5 8 10 11 10 9 12 16 18 18 18 18 18 18 16 17 21 25 27 26 25 24 22 19 19 18 17 15 13 13 13 12 11 8 7 5 2 2 2
2 4 2 2 4 4 6 6 3 3 4 3 2 2 3 2 3 5 5 3 3 2 2 2 0 4 3 2 3 3 4 6 9 14 16 14 14 16 17 17 14 13 13 11 7 6 7 8 9 10 11 10 9 11 13 12 14 16 16 16 17 16 17 21 25 26 26 26 24 21 19 20 20 19 16 14 14 12 10 9 7 6 4 3 2 3
1 1 2 2 4 4 5 6 5 5 4 2 2 4 2 2 4 3 2 3 3 3 4 4 2 5 3 1 4 4 5 7 9 13 14 12 11 12 14 16 16 14 13 10 7 7 7 7 7 6 5 6 7 9 9 8 12 16 16 16 15 14 15 19 22 23 23 23 22 21 20 21 22 20 18 16 14 12 9 8 7 6 5 4 4 4
2 1 2 4 2 2 2 2 3 2 3 1 2 5 5 3 3 3 3 3 2 2 3 4 4 3 1 3 5 5 6 8 8 11 12 12 13 14 15 17 17 16 14 13 12 12 10 9 8 7 7 8 9 10 11 13 16 18 17 16 15 14 14 17 19 20 20 20 21 21 22 23 23 22 20 18 16 13 10 8 7 6 6 5 4 6
3 3 2 5 5 5 5 5 5 2 1 2 4 6 7 5 2 3 4 2 4 3 2 2 4 2 4 5 6 5 6 7 8 12 15 16 17 18 19 19 18 17 15 13 13 13 11 10 8 6 8 10 11 12 13 15 17 18 17 17 16 15 16 16 17 17 18 20 21 22 23 24 25 24 22 21 20 17 13 10 9 8 7 5 4 5
5 3 2 5 4 0 2 4 4 1 4 3 4 7 8 8 5 4 4 2 5 5 1 4 4 5 5 5 5 5 7 8 9 13 15 16 18 18 19 20 20 19 18 16 15 14 12 11 10 9 8 9 12 16 16 14 14 15 16 17 16 16 16 15 15 16 17 19 20 22 23 24 25 25 25 23 20 19 17 13 12 11 8 4 3 4
5 2 1 3 4 4 5 4 3 4 5 4 6 8 9 9 7 4 2 1 3 4 4 4 6 5 3 6 7 6 8 9 10 14 16 18 19 20 21 22 22 21 20 19 17 15 13 13 15 14 11 10 12 15 16 14 14 15 15 16 17 16 15 15 15 16 18 19 20 21 21 22 24 26 26 23 20 20 21 17 14 12 8 5 3 3
4 2 1 3 3 5 7 6 5 6 4 4 7 8 9 8 8 7 3 2 3 3 4 8 9 6 5 5 6 7 9 13 16 18 19 20 21 22 24 24 25 24 23 21 19 18 16 15 17 19 17 15 15 15 14 15 16 15 14 14 14 14 14 13 14 16 17 19 20 20 20 21 24 26 24 22 20 21 22 20 15 12 10 9 7 5
3 2 1 3 3 4 6 6 6 6 5 6 8 10 10 8 7 7 4 3 4 4 7 9 7 4 4 5 8 10 11 16 18 17 18 20 21 24 25 24 24 25 24 23 21 20 19 18 19 22 23 21 19 17 16 15 15 14 14 14 13 13 12 11 12 13 15 17 19 20 21 24 26 25 22 21 19 18 20 20 18 15 14 13 11 10
3 2 1 3 3 2 5 5 6 5 5 6 8 11 11 7 4 4 4 4 3 3 7 7 3 2 3 5 10 12 14 17 17 16 17 20 22 24 26 25 25 26 26 25 23 23 22 22 22 24 25 23 20 18 18 17 16 15 15 15 13 12 11 11 11 12 14 17 19 20 21 22 23 23 23 22 19 16 17 20 21 21 18 15 13 14
3 3 1 3 3 1 4 4 4 3 3 2 5 7 8 6 2 2 3 5 5 0 4 3 1 2 4 6 8 10 12 15 16 15 16 19 21 23 25 27 27 27 27 26 25 25 25 25 25 25 26 25 22 20 19 17 17 18 17 16 14 12 12 11 11 11 12 14 16 17 18 18 18 21 22 21 19 18 18 21 24 23 20 17 16 16
3 4 2 1 2 1 4 5 3 2 1 1 1 4 5 4 4 4 4 6 6 3 4 4 5 6 6 6 8 9 12 16 18 18 17 18 21 23 25 26 28 28 28 28 27 27 27 27 27 27 28 28 25 24 22 18 18 19 19 16 15 14 13 12 12 11 11 11 12 14 17 18 18 18 18 18 18 17 18 20 22 21 19 18 17 16
4 4 2 1 2 2 1 3 2 1 1 1 1 3 3 2 5 6 6 7 7 6 8 9 8 8 8 10 13 17 21 24 24 22 20 19 20 23 24 25 27 30 30 30 29 28 28 28 29 29 29 29 28 27 25 22 20 19 18 17 16 16 15 15 14 14 12 12 13 15 17 18 17 16 15 15 15 15 16 18 20 18 15 15 16 16
5 4 2 1 2 2 1 3 1 1 2 1 2 4 3 2 2 2 4 6 6 5 7 9 8 8 12 15 17 20 25 28 27 24 21 19 20 23 26 26 27 29 31 31 31 30 29 29 29 30 30 30 30 29 28 26 24 21 20 20 19 19 19 18 18 18 17 16 16 16 17 17 16 15 13 13 13 14 16 17 18 17 15 15 16 17
5 4 3 2 1 2 3 2 1 1 2 2 2 3 3 2 2 1 1 3 4 4 5 9 10 10 12 15 18 21 25 25 21 18 18 19 20 23 26 26 26 26 27 28 29 29 28 28 28 29 29 29 29 29 28 27 27 26 25 24 23 23 22 21 20 21 20 20 19 18 17 15 14 14 13 12 12 14 16 16 16 17 17 16 17 18
5 3 3 3 1 1 3 3 0 0 0 1 2 3 4 6 5 3 0 2 2 6 8 9 10 10 12 15 18 19 17 15 8 7 11 17 18 21 24 24 24 24 23 23 23 23 24 24 24 24 25 25 25 25 24 23 23 25 26 25 24 24 23 22 22 20 20 20 19 18 17 16 15 14 13 12 11 12 12 13 13 14 15 14 15 15
8 4 4 4 2 2 3 3 1 1 1 2 4 7 11 11 6 2 2 2 1 7 10 11 10 11 13 16 15 11 6 5 2 3 10 16 17 18 19 20 21 20 19 19 19 19 19 19 19 19 19 20 19 18 16 16 16 17 19 20 20 20 20 20 19 17 16 15 14 13 13 12 12 12 11 11 11 11 10 10 9 9 10 11 12 12
8 5 5 5 3 2 3 2 1 0 1 2 5 12 17 14 3 3 3 3 3 9 13 14 14 14 15 14 9 2 1 4 8 10 14 17 17 15 15 16 16 16 17 18 17 17 16 15 15 15 16 16 15 14 12 10 9 10 11 12 13 14 15 15 13 12 11 10 9 8 7 6 6 5 5 5 6 6 5 4 4 4 5 6 8 9
4 4 3 4 3 3 3 3 1 1 1 3 10 16 18 10 0 3 1 3 8 14 15 16 17 17 14 8 3 4 6 13 18 18 17 15 14 13 13 13 14 14 14 15 14 14 14 14 14 15 15 15 13 12 11 8 6 7 8 8 8 10 11 10 9 8 8 6 5 4 3 2 1 0 1 2 3 3 4 4 5 6 6 7 7 8
3 3 3 3 2 2 2 3 1 1 0 8 17 17 11 4 2 1 4 3 13 19 18 17 17 15 9 5 8 14 19 22 23 20 17 15 15 15 13 13 14 15 15 14 13 12 11 12 12 13 14 14 12 12 12 9 7 8 8 7 8 11 11 10 9 8 8 7 6 5 4 4 4 4 4 4 5 6 7 9 11 13 14 15 16 16
2 1 2 2 1 1 2 3 2 1 3 14 17 9 5 3 3 4 6 2 15 20 19 17 15 12 8 10 18 24 26 25 22 20 19 17 16 16 16 15 15 16 15 14 13 12 10 10 11 12 13 13 12 13 12 10 8 8 8 8 11 12 11 10 10 10 9 8 8 7 7 7 7 7 7 7 7 8 8 9 11 13 15 16 18 20
2 2 1 1 1 2 2 1 1 1 7 13 10 3 3 6 6 4 1 6 12 15 16 14 10 7 10 18 26 27 25 23 22 20 19 17 16 16 17 16 15 15 14 14 13 12 11 11 12 13 14 14 13 14 13 12 11 10 10 12 13 12 11 11 10 10 9 9 9 9 9 9 9 9 9 9 10 10 10 11 12 13 14 15 16 17
2 2 4 2 1 2 3 1 0 3 7 9 7 4 5 5 3 2 6 10 11 12 12 11 10 10 16 23 28 27 24 23 22 20 19 18 17 17 17 16 15 14 13 13 12 11 10 11 12 12 13 14 14 14 14 13 11 12 13 15 14 12 12 11 11 10 10 10 10 10 10 10 10 10 11 11 12 12 13 13 13 14 15 15 16 17
1 2 4 3 1 2 4 5 4 5 8 9 10 8 7 7 6 5 9 10 10 10 10 11 14 18 21 25 26 25 24 22 20 19 18 18 17 17 16 15 14 13 12 13 12 10 9 10 10 11 12 14 14 14 14 13 12 13 15 15 14 13 12 11 11 11 11 11 10 10 10 11 11 12 12 13 14 15 15 16 16 16 16 17 17 17
3 4 4 3 2 2 2 5 6 7 8 9 12 12 11 11 11 10 12 13 12 13 13 15 18 20 21 22 23 23 22 21 19 19 17 16 16 15 14 13 12 11 11 11 10 9 8 8 9 10 11 13 14 15 15 14 15 16 16 16 15 15 13 12 12 11 11 11 10 11 11 11 12 12 13 14 14 14 15 16 16 16 16 17 17 17
3 4 3 2 3 2 1 2 4 7 9 10 13 16 17 18 17 16 17 17 17 18 19 19 19 19 19 19 21 22 21 18 17 17 16 15 15 14 12 12 12 11 10 10 9 8 7 8 9 9 10 12 13 14 14 15 16 16 16 16 16 16 15 15 15 14 13 13 12 12 12 12 12 13 13 13 14 14 14 14 14 14 14 15 16 16
3 3 1 2 3 2 0 0 3 8 9 11 14 18 20 21 21 20 19 18 18 20 20 19 18 17 17 16 16 17 17 16 15 15 15 15 14 12 11 11 10 10 10 10 9 8 7 8 9 10 10 11 12 12 13 14 15 15 15 15 15 15 15 16 16 16 16 15 14 13 13 12 12 12 12 11 12 12 13 14 14 13 13 14 15 17
3 1 1 3 3 2 2 4 4 4 4 6 12 17 18 18 18 19 18 17 17 16 15 15 15 14 13 12 11 11 13 15 14 12 13 12 11 10 10 9 9 9 10 10 10 8 7 8 9 9 9 10 10 10 11 13 14 14 14 15 16 16 17 17 17 17 17 17 15 14 13 12 12 12 12 12 11 11 11 12 13 14 14 14 15 16
2 3 1 2 2 1 3 7 5 4 6 9 11 14 14 12 13 14 14 15 14 12 8 8 10 10 10 9 9 9 11 13 11 9 9 9 8 7 7 6 6 7 8 9 9 8 7 7 7 7 7 7 7 8 10 12 14 15 15 16 17 18 19 19 19 18 18 18 16 14 13 13 12 13 13 13 12 12 12 12 12 12 13 14 14 15
Wind_Direction
154 166 206 199 180 172 203 196 179 176 140 131 175 207 221 248 265 205 235 265 220 348 288 253 227 258 266 248 206 196 199 206 207 198 190 188 189 192 196 201 202 204 209 208 206 209 210 211 212 211 212 213 214 215 217 218 214 214 216 211 202 198 197 196 193 190 188 186 183 183 185 186 182 176 176 175 174 176 175 172 166 164 164 164 168 170
137 190 220 190 178 179 190 179 159 150 132 154 228 272 270 242 261 248 237 260 195 166 268 270 268 273 263 252 212 189 193 209 207 198 194 193 192 194 198 201 200 203 210 210 209 211 213 214 212 211 212 214 216 216 217 219 216 215 217 212 204 200 196 196 195 190 188 188 187 186 184 183 178 173 171 171 169 170 173 172 167 167 169 170 170 165
149 225 213 191 183 150 108 117 130 140 159 165 182 267 271 254 287 290 268 278 127 153 261 292 292 273 269 260 213 185 189 206 207 201 197 194 191 194 199 199 196 199 207 210 208 209 212 212 211 212 213 215 218 218 218 220 219 218 217 211 206 202 197 195 193 191 190 188 187 185 181 179 175 166 160 163 167 170 177 180 175 174 175 175 170 164
219 237 212 189 164 130 108 116 118 111 146 178 180 228 263 265 324 285 292 322 322 227 257 280 289 277 285 296 244 201 199 208 210 205 200 196 194 197 200 197 195 198 205 207 206 208 209 209 211 212 212 215 220 220 220 220 221 219 214 208 205 201 198 195 191 191 191 186 182 178 175 176 171 163 159 160 165 170 178 184 182 177 172 168 167 167
231 238 186 125 134 159 186 159 131 149 263 249 212 214 239 244 213 230 279 333 324 313 250 264 319 302 308 318 295 232 214 223 215 200 196 198 200 201 198 195 198 202 204 204 204 207 207 207 210 212 211 214 219 220 220 221 222 217 210 207 205 202 198 195 192 191 190 185 179 173 171 173 168 166 165 163 161 159 162 170 172 168 164 162 164 167
253 238 163 110 114 163 178 211 184 176 224 285 235 211 211 218 229 238 278 13 359 336 286 62 14 301 311 307 295 299 240 238 209 182 185 191 194 194 191 194 200 204 206 206 206 208 207 206 210 211 210 213 219 220 220 222 223 217 209 207 206 202 198 195 193 192 190 186 180 176 177 176 172 172 171 165 160 151 147 153 158 157 158 161 164 167
256 198 166 153 155 153 166 239 226 167 163 281 239 202 203 211 230 245 234 99 98 268 280 54 99 259 311 327 296 309 269 243 210 183 183 181 182 186 189 195 199 201 203 206 209 210 208 208 211 210 208 213 219 221 221 223 223 217 209 207 206 203 200 198 194 191 190 186 182 183 183 181 178 178 172 162 159 154 147 150 154 154 156 158 161 165
178 152 150 146 148 152 171 240 223 158 140 252 230 177 181 202 221 230 178 157 228 263 312 15 115 218 296 292 281 294 226 248 224 194 183 181 183 186 191 196 198 200 202 204 206 208 210 211 210 207 207 214 220 222 224 223 221 217 209 205 207 205 202 201 196 191 188 186 185 183 182 183 183 181 170 162 163 162 155 156 159 156 156 157 158 163
159 159 171 157 153 177 202 213 188 158 165 245 216 161 166 184 196 193 153 184 249 354 313 303 123 186 274 276 301 10 129 223 218 202 192 185 187 189 192 197 200 201 202 203 204 206 211 212 208 205 208 216 221 223 225 223 220 218 209 203 205 205 204 202 195 190 186 186 189 185 181 183 181 178 174 170 169 166 163 166 166 162 158 156 158 164
187 189 184 156 157 204 216 204 167 170 204 226 162 136 109 105 125 130 137 159 73 34 263 258 186 197 275 287 325 26 126 234 226 213 203 191 191 193 194 197 200 200 201 203 205 207 210 210 207 207 212 218 223 224 226 224 222 221 212 202 202 205 205 199 192 189 186 187 189 186 184 185 181 179 180 176 172 169 169 172 171 166 157 147 148 157
292 250 170 153 191 206 202 196 180 187 200 140 109 98 59 40 50 66 80 101 92 271 259 243 194 182 274 286 264 203 218 223 223 217 200 196 197 195 195 197 197 197 198 201 205 208 209 207 207 209 214 221 225 225 225 225 225 224 217 203 199 204 206 197 190 190 189 189 190 188 187 187 185 184 183 177 173 170 169 172 172 167 151 137 141 150
335 322 192 216 224 210 170 201 216 210 202 117 74 85 75 348 20 36 3 50 128 251 264 250 175 152 199 260 248 250 260 242 231 218 197 195 196 195 196 196 194 193 194 199 204 206 205 205 207 209 214 222 226 225 225 225 226 225 220 208 200 202 203 197 191 190 191 191 191 190 188 189 188 186 183 178 176 171 167 165 168 166 148 137 142 148
303 230 244 250 234 207 173 233 299 316 156 136 106 94 103 328 24 25 299 238 207 249 257 209 135 151 216 241 251 281 282 260 243 234 218 206 198 194 193 191 187 184 185 192 194 194 201 207 210 212 216 223 228 228 226 226 226 222 218 210 201 199 200 197 191 189 190 192 193 192 188 187 190 190 186 182 187 182 166 155 156 160 148 140 142 142
306 292 285 260 257 207 175 190 257 243 162 157 150 142 147 123 81 287 266 252 258 258 271 18 142 215 270 253 251 284 289 279 263 248 238 226 206 195 186 180 178 177 180 183 173 186 214 220 218 220 222 225 229 230 226 224 222 218 216 209 200 199 199 196 192 189 189 192 194 193 188 188 192 193 190 193 204 194 166 151 153 159 155 146 143 145
182 314 251 192 240 182 174 200 201 160 150 173 165 138 147 152 148 205 219 203 250 260 289 334 152 180 219 245 253 273 299 311 289 235 213 203 193 183 171 168 173 178 182 181 179 197 215 218 220 225 226 227 230 230 224 218 218 218 218 209 200 199 198 195 193 190 190 194 196 193 188 190 195 194 196 207 212 197 167 156 164 171 170 160 155 159
152 255 251 237 224 156 186 222 156 114 123 211 137 109 154 182 155 160 189 174 184 224 289 303 224 203 209 262 292 311 333 356 26 127 148 147 163 165 161 160 162 166 177 185 191 201 211 214 218 225 227 229 232 229 215 205 216 221 222 215 205 202 198 194 192 190 192 196 199 196 191 192 197 196 203 214 210 194 168 164 176 181 181 177 177 175
129 258 276 313 296 206 205 207 156 153 186 168 131 169 216 170 129 120 190 92 81 146 255 309 281 297 327 306 311 2 16 28 55 72 103 127 152 158 156 155 151 154 171 190 197 199 207 214 219 226 230 232 235 232 215 205 217 226 230 226 209 204 199 192 189 190 195 200 202 200 194 192 196 197 206 215 209 194 174 174 183 183 189 196 197 192
145 264 284 301 272 274 264 158 106 141 143 125 184 203 184 82 90 110 158 11 49 174 266 337 297 299 4 228 308 27 32 31 51 63 69 71 141 162 157 155 156 165 179 194 203 199 203 212 220 228 232 234 238 236 221 212 213 220 229 227 209 203 197 188 188 192 197 203 203 198 192 190 194 201 208 212 209 198 184 184 181 173 182 190 201 204
148 278 291 254 234 291 349 70 0 346 89 139 176 165 107 120 171 99 135 143 133 202 287 325 305 273 196 218 325 29 23 19 30 44 54 44 40 41 46 139 155 164 178 187 193 195 199 208 220 227 229 226 227 230 221 211 210 212 219 220 207 201 197 189 190 194 197 201 201 196 191 192 198 203 205 205 208 204 195 190 176 165 167 170 192 213
127 110 287 272 245 312 359 45 226 299 346 44 112 100 46 132 161 163 146 158 162 172 247 312 320 278 223 233 334 349 348 25 49 49 59 57 58 51 33 30 116 142 156 166 166 168 181 195 216 227 226 221 218 222 221 215 214 216 218 216 203 197 200 198 194 195 198 198 198 197 194 197 202 201 199 204 207 205 199 190 176 168 164 158 180 211
78 105 246 284 324 349 345 320 219 203 170 89 125 185 324 91 131 157 106 86 128 148 174 163 284 271 248 264 337 325 329 25 87 78 72 68 74 71 54 38 57 88 95 107 116 121 152 175 195 211 215 212 206 213 221 217 216 219 220 217 200 187 197 201 197 197 200 199 198 199 199 202 202 195 194 201 202 201 195 184 177 176 168 156 168 202
127 131 195 284 342 348 259 258 231 185 171 159 163 183 177 132 126 132 256 301 104 123 162 159 204 270 266 294 344 339 350 38 99 100 89 82 86 87 79 69 73 79 80 92 107 106 138 187 205 205 199 193 190 201 214 211 211 217 220 214 202 191 195 199 198 199 200 200 201 202 202 203 199 192 194 196 192 193 188 179 176 181 179 165 161 188
144 106 117 256 258 246 263 262 244 95 117 126 134 153 143 124 120 131 189 227 113 96 145 124 147 270 268 57 44 44 47 54 85 94 81 72 82 95 107 110 101 95 99 111 124 135 154 183 205 207 206 204 194 198 210 211 211 213 215 213 207 201 195 194 196 199 199 200 202 203 202 202 196 194 196 192 187 190 185 177 177 182 185 187 172 196
109 74 61 305 296 301 300 301 329 21 57 55 6 44 111 139 135 141 171 174 133 154 158 92 342 265 283 24 82 105 73 60 83 96 91 78 75 88 104 111 108 107 111 114 119 135 149 165 179 182 190 197 190 190 200 209 211 208 208 212 212 206 196 191 195 199 199 200 204 204 200 197 195 196 196 188 185 189 186 179 180 183 193 206 199 213
172 71 92 58 359 347 340 338 340 352 27 56 332 330 357 88 97 114 134 88 109 184 146 130 216 259 277 46 91 104 81 69 84 99 102 103 99 92 94 102 110 120 124 126 140 150 151 168 189 200 202 196 186 189 197 205 206 204 206 211 210 205 198 193 195 198 199 202 205 203 199 198 197 197 194 187 184 187 190 188 184 187 204 216 208 214
146 121 114 113 126 173 202 267 267 290 331 342 331 344 355 39 100 143 133 92 171 222 100 136 207 251 193 106 87 91 88 79 78 79 79 87 98 99 97 102 111 118 121 125 135 141 144 156 173 188 193 196 198 195 195 197 194 194 196 197 196 198 197 194 194 196 198 202 204 204 203 202 202 201 199 195 191 191 198 201 189 193 217 227 213 213
103 61 91 122 143 182 201 230 238 221 40 345 331 351 355 336 341 99 103 132 185 153 67 215 207 146 132 113 90 86 77 67 63 63 62 65 75 85 93 100 106 109 111 115 118 123 130 129 122 117 140 167 178 169 168 183 190 186 184 182 182 190 194 193 194 198 201 203 206 208 208 207 210 213 212 207 201 198 201 203 192 193 213 229 222 219
97 54 70 97 85 257 252 269 274 107 85 46 355 354 353 338 350 75 108 166 152 127 231 241 176 137 130 92 74 73 66 60 54 57 61 65 71 79 87 92 95 96 98 100 103 111 117 112 99 88 102 130 146 151 154 166 180 179 175 174 176 184 191 191 192 199 205 207 208 209 210 213 217 220 219 214 205 197 194 192 190 192 201 221 229 232
113 81 96 95 60 28 14 357 25 84 100 73 44 22 5 359 14 71 122 199 118 141 204 183 135 117 76 47 46 55 66 73 71 70 75 77 78 83 85 83 84 89 92 93 95 101 103 105 109 111 111 117 132 151 159 163 170 174 172 171 171 174 182 185 186 193 200 203 205 207 210 216 220 220 216 209 200 196 193 187 184 185 192 201 203 236
103 85 113 116 79 32 14 2 31 68 94 67 44 30 18 17 31 53 69 32 48 103 132 118 103 74 37 38 48 59 75 85 83 78 79 80 80 83 83 80 81 87 93 94 96 101 106 112 117 118 122 131 136 145 153 158 165 168 164 163 166 169 176 183 186 191 197 201 207 210 210 215 220 218 212 205 206 211 206 196 185 182 194 201 198 219
70 111 152 92 78 8 352 359 19 49 89 75 39 21 14 18 26 35 46 36 34 69 93 98 96 72 40 50 57 56 66 76 73 65 70 80 86 87 85 82 82 86 92 95 97 100 106 113 113 111 120 133 137 138 141 147 155 156 152 153 160 166 171 178 185 190 197 204 211 214 214 216 216 211 206 205 210 213 207 200 197 201 209 212 213 222
60 103 51 70 87 327 335 355 1 26 76 64 33 12 358 0 17 16 15 6 356 113 114 108 115 129 106 82 67 56 58 66 62 55 65 80 88 90 89 87 87 88 91 94 98 101 101 106 105 104 113 125 132 133 133 135 140 141 143 146 150 160 167 173 183 193 200 205 211 215 213 214 209 200 198 199 198 200 205 203 203 208 212 215 218 222
91 117 96 75 102 298 319 331 341 20 50 19 9 358 335 321 325 348 7 358 341 37 131 131 134 116 110 99 81 65 59 64 61 58 68 78 83 87 89 90 91 92 93 94 99 100 100 101 102 101 107 116 124 127 127 133 135 131 133 139 144 156 167 169 171 178 186 193 203 207 204 201 197 191 194 197 197 206 213 207 206 212 213 214 219 221
79 104 101 69 108 213 303 330 1 51 122 236 321 349 336 350 27 52 45 7 356 43 104 93 75 74 73 77 87 85 77 74 73 73 77 82 85 87 88 90 92 94 95 96 98 100 102 103 103 103 105 110 115 118 122 130 132 126 127 134 140 147 157 162 161 158 160 168 180 189 192 193 193 191 195 198 199 205 207 205 210 214 211 210 217 222
100 94 93 55 95 132 329 13 58 169 226 179 83 0 357 50 74 83 74 37 32 77 100 94 87 90 92 93 98 98 93 90 85 79 76 77 84 88 88 89 93 96 97 97 97 98 101 104 106 108 108 109 111 114 116 118 120 120 125 132 138 139 141 146 147 141 142 149 155 164 176 183 185 187 192 195 196 202 204 205 209 209 205 208 216 222
128 116 111 76 80 127 79 51 116 212 322 18 44 10 5 22 46 67 64 45 44 71 104 106 108 112 112 109 108 104 101 96 87 75 73 75 78 84 86 86 90 94 95 97 98 98 100 100 102 104 107 109 110 112 113 115 117 119 122 124 127 126 124 125 123 119 118 122 126 136 151 164 171 175 180 184 187 194 199 201 204 205 206 208 214 221
115 124 123 79 73 134 109 80 168 254 351 26 30 9 4 346 317 310 10 26 49 80 112 122 125 126 123 121 119 113 104 94 79 64 72 81 82 83 85 86 88 91 92 95 97 97 98 98 97 99 102 103 103 104 107 112 116 118 119 118 118 118 117 115 111 108 109 109 110 115 124 136 149 155 161 169 174 181 190 195 199 203 205 207 212 218
68 111 137 112 78 91 98 99 101 275 6 26 349 326 334 325 291 243 124 354 57 99 124 136 133 134 137 134 133 127 109 92 72 53 80 91 90 86 83 82 85 89 91 93 94 93 93 95 96 98 100 100 98 98 100 105 108 109 110 111 112 115 115 112 108 105 106 107 107 109 112 117 126 131 139 151 156 163 175 184 189 195 200 205 210 215
41 51 90 90 65 57 94 107 99 166 205 339 319 311 329 331 298 197 77 350 116 125 136 142 136 141 147 147 151 153 121 91 108 138 116 110 102 93 86 82 83 85 83 82 84 83 83 86 92 97 99 97 92 89 93 100 102 100 96 96 102 108 106 103 102 101 101 102 103 106 107 110 116 120 125 132 134 138 149 159 169 178 186 196 208 218
27 23 44 60 59 59 79 89 65 73 280 339 317 313 325 329 311 119 49 298 190 148 149 149 147 151 154 153 158 180 46 130 151 150 135 120 107 99 95 90 90 89 83 77 75 76 79 83 87 91 92 88 81 75 78 89 104 105 92 85 93 99 94 87 86 86 89 92 95 99 101 104 115 123 123 126 131 133 137 145 159 175 186 200 214 223
18 20 43 74 78 50 64 93 69 337 297 329 319 318 325 329 123 114 343 239 166 151 157 159 155 156 157 156 132 58 98 132 138 135 131 122 113 111 108 105 104 99 89 81 76 73 74 73 72 74 75 72 68 67 63 58 72 90 81 71 78 81 74 66 62 61 63 65 68 71 69 66 92 194 262 252 233 238 257 266 269 271 268 265 264 257
19 18 20 45 54 24 68 100 59 254 16 343 328 325 340 0 200 286 323 212 159 155 161 163 159 159 158 134 111 113 120 127 130 128 126 124 119 115 111 108 102 93 85 81 76 69 67 67 67 67 66 61 56 54 50 38 40 57 58 53 56 54 49 45 42 38 34 30 23 16 7 355 340 324 313 299 279 268 265 265 268 272 274 277 279 279
36 58 11 348 12 34 47 50 45 189 338 346 339 336 19 25 278 308 350 146 160 158 160 160 158 161 154 127 122 124 125 126 128 127 125 122 116 109 106 104 99 91 87 86 83 79 78 79 78 73 68 63 59 56 50 43 47 57 57 54 54 49 42 38 35 31 25 18 11 6 359 352 345 337 330 323 314 305 296 288 284 283 281 280 280 279
24 74 125 269 317 67 69 34 29 309 330 344 350 349 350 337 306 297 29 141 155 156 156 155 153 162 154 137 130 128 128 128 131 131 130 130 129 124 121 117 110 103 96 91 88 86 84 84 83 80 77 73 68 64 60 57 60 65 63 59 57 52 46 40 34 26 17 10 6 3 357 352 347 340 333 328 323 319 315 310 306 302 298 294 290 286
19 99 126 124 40 89 114 138 346 358 356 4 23 28 11 11 357 200 155 142 145 154 156 145 135 144 148 141 135 132 131 133 134 134 136 139 139 134 128 123 116 109 100 94 91 86 82 82 81 82 83 78 70 66 64 60 59 63 63 60 56 50 42 35 26 17 12 8 4 0 356 351 345 338 332 328 324 320 318 315 312 309 306 303 300 296
39 106 117 102 41 45 60 51 30 16 19 36 56 60 62 76 88 121 130 121 128 147 149 135 131 136 139 139 137 134 134 136 135 133 135 138 138 135 129 122 115 106 98 93 91 86 81 80 81 83 85 80 71 65 62 59 57 59 61 58 53 46 39 31 22 15 10 7 1 357 351 345 339 335 333 330 326 323 320 318 316 314 312 309 306 303
16 64 85 82 58 60 42 14 8 13 21 47 72 78 80 86 91 99 105 103 108 120 123 127 133 136 137 139 137 134 135 136 135 133 135 136 136 134 129 122 115 106 96 88 86 86 84 84 86 91 91 85 76 67 62 60 60 60 59 56 51 46 39 31 25 20 13 6 358 351 345 340 337 335 333 331 329 326 323 321 319 318 315 312 308 306
355 40 60 72 63 85 209 314 22 53 59 67 83 89 89 92 95 96 100 105 109 111 115 122 128 131 134 137 135 133 135 136 133 131 132 133 133 133 129 124 119 111 102 94 90 92 95 94 98 101 97 89 79 70 63 60 59 58 56 53 50 46 42 35 30 25 19 11 3 354 348 344 340 338 336 334 332 329 327 325 324 323 320 315 311 310
330 9 42 82 58 39 328 262 72 74 66 67 87 97 98 99 100 98 99 104 109 113 117 120 122 123 125 127 131 134 134 132 129 125 122 123 126 128 126 125 121 113 104 98 95 97 98 99 104 108 103 93 83 75 67 61 59 58 55 53 50 46 42 37 33 29 24 19 13 6 359 354 348 345 345 345 344 342 339 337 334 331 328 322 317 315
23 111 107 70 58 355 252 191 158 113 85 88 99 102 102 102 101 99 97 95 97 105 112 114 116 118 117 121 133 140 136 131 127 121 118 118 121 126 129 130 127 119 109 101 97 96 98 103 107 106 99 89 81 77 70 61 57 56 54 51 47 43 38 34 30 27 25 23 20 15 10 6 1 360 0 0 0 358 353 349 343 335 330 325 320 317
52 169 185 97 89 308 218 185 167 123 127 134 121 115 116 113 107 106 104 97 93 97 103 108 115 119 124 136 153 154 142 134 128 121 120 120 122 131 139 141 136 126 116 109 100 92 92 102 109 103 91 79 73 73 70 60 54 52 49 46 42 38 33 29 25 23 22 21 20 17 15 12 10 11 12 14 13 9 5 6 4 354 345 341 334 326